Hourly Data Report for October 04, 2014

All times are specified in Local Standard Time (LST). Add 1 hour to adjust for Daylight Saving Time where and when it is observed.

PENTICTON A
BRITISH COLUMBIA

49°27'45.000" N
119°36'08.000" W
344.40 m
1126146
71889
YYF

Download Data

Hourly Data (October 2014)
Hourly Data Report for October 4, 2014
Temp Definition
°C
Dew Point Temp Definition
°C
Rel Hum Definition
%
Wind Dir Definition
10's deg

Wind Spd Definition
km/h
Visibility Definition
km
Stn Press Definition
kPa
Hmdx Definition


Wind Chill Definition


Weather Definition


TIME
00:00 Legend Double Dagger 11.6 6.6 71 36 2 24.1 98.16     LegendNANA
01:00 Legend Double Dagger 11.0 6.8 75 33 7 24.1 98.16     Mostly Cloudy
02:00 Legend Double Dagger 9.1 6.4 83 4 6 24.1 98.16     LegendNANA
03:00 Legend Double Dagger 10.0 6.6 79 24 6 24.1 98.11     LegendNANA
04:00 Legend Double Dagger 9.8 6.7 81 36 2 24.1 98.15     Mostly Cloudy
05:00 Legend Double Dagger 8.5 6.0 84 36 2 24.1 98.14     LegendNANA
06:00 Legend Double Dagger 8.4 6.2 86 8 4 24.1 98.17     LegendNANA
07:00 Legend Double Dagger 9.7 7.8 88 2 4 24.1 98.17     Mostly Cloudy
08:00 Legend Double Dagger 11.9 8.6 80 5 3 24.1 98.17     LegendNANA
09:00 Legend Double Dagger 13.7 8.6 71 35 5 24.1 98.17     LegendNANA
10:00 Legend Double Dagger 13.7 8.6 71 33 5 24.1 98.13     Mainly Clear
11:00 Legend Double Dagger 17.1 7.3 52 8 7 24.1 98.02     LegendNANA
12:00 Legend Double Dagger 16.9 8.9 59 36 16 24.1 98.01     LegendNANA
13:00 Legend Double Dagger 16.3 8.8 61 35 16 24.1 97.95     Mostly Cloudy
14:00 Legend Double Dagger 16.8 9.3 61 1 13 24.1 97.93     LegendNANA
15:00 Legend Double Dagger 17.5 8.5 55 35 11 24.1 97.84     LegendNANA
16:00 Legend Double Dagger 17.1 9.6 61 35 18 24.1 97.84     Mostly Cloudy
17:00 Legend Double Dagger 15.9 8.7 62 36 6 24.1 97.76     LegendNANA
18:00 Legend Double Dagger 14.3 9.2 71 35 11 24.1 97.83     LegendNANA
19:00 Legend Double Dagger 10.8 7.5 80 35 4 24.1 97.88     Mainly Clear
20:00 Legend Double Dagger 9.7 6.8 82 1 4 24.1 97.87     LegendNANA
21:00 Legend Double Dagger 8.7 6.2 84 36 1 24.1 97.92     LegendNANA
22:00 Legend Double Dagger 10.3 7.2 81 3 8 24.1 97.95     Mainly Clear
23:00 Legend Double Dagger 7.2 5.2 87 3 3 24.1 97.96     LegendNANA

Notes on Data Quality.

Legend

  • E = Estimated
  • M = Missing
  • NA = Not Available
  • ‡ = Partner data that is not subject to review by the National Climate Archives
Date modified: